TimeCDT,TemperatureF,Dew PointF,Humidity,Sea Level PressureIn,VisibilityMPH,Wind Direction,Wind SpeedMPH,Gust SpeedMPH,PrecipitationIn,Events,Conditions,WindDirDegrees,DateUTC
12:53 AM,82.0,57.9,44,29.82,10.0,South,19.6,27.6,N/A,,Clear,180,2013-06-24 05:53:00
1:53 AM,82.0,57.9,44,29.83,10.0,South,23.0,31.1,N/A,,Clear,190,2013-06-24 06:53:00
2:53 AM,80.1,59.0,48,29.83,10.0,South,19.6,29.9,N/A,,Clear,190,2013-06-24 07:53:00
3:53 AM,79.0,59.0,50,29.84,10.0,South,19.6,-,N/A,,Clear,180,2013-06-24 08:53:00
4:53 AM,77.0,60.1,56,29.85,10.0,South,16.1,24.2,N/A,,Clear,180,2013-06-24 09:53:00
5:53 AM,75.9,60.1,58,29.86,10.0,South,17.3,-,N/A,,Clear,190,2013-06-24 10:53:00
6:53 AM,75.0,60.1,60,29.88,10.0,South,17.3,-,N/A,,Clear,190,2013-06-24 11:53:00
7:53 AM,77.0,61.0,58,29.89,10.0,South,20.7,26.5,N/A,,Clear,190,2013-06-24 12:53:00
8:53 AM,79.0,62.1,56,29.90,10.0,SSW,25.3,32.2,N/A,,Clear,200,2013-06-24 13:53:00
9:53 AM,82.9,63.0,51,29.90,10.0,SSW,24.2,32.2,N/A,,Clear,200,2013-06-24 14:53:00
10:53 AM,87.1,63.0,44,29.90,10.0,SSW,25.3,33.4,N/A,,Clear,200,2013-06-24 15:53:00
11:53 AM,91.0,62.1,38,29.89,10.0,South,25.3,32.2,N/A,,Clear,190,2013-06-24 16:53:00
12:53 PM,93.0,61.0,34,29.88,10.0,SW,26.5,32.2,N/A,,Clear,220,2013-06-24 17:53:00
1:53 PM,93.9,59.0,31,29.85,10.0,SSW,25.3,34.5,N/A,,Clear,200,2013-06-24 18:53:00
2:53 PM,96.1,60.1,30,29.83,10.0,South,24.2,33.4,N/A,,Clear,190,2013-06-24 19:53:00
3:53 PM,97.0,57.0,26,29.81,10.0,South,20.7,39.1,N/A,,Clear,190,2013-06-24 20:53:00
4:53 PM,95.0,57.0,28,29.79,10.0,South,21.9,32.2,N/A,,Clear,190,2013-06-24 21:53:00
5:53 PM,95.0,59.0,30,29.76,10.0,South,28.8,36.8,N/A,,Clear,170,2013-06-24 22:53:00
6:53 PM,93.9,62.1,35,29.77,10.0,South,25.3,32.2,N/A,,Clear,180,2013-06-24 23:53:00
7:53 PM,91.0,61.0,36,29.77,10.0,South,21.9,29.9,N/A,,Clear,180,2013-06-25 00:53:00
8:53 PM,88.0,61.0,40,29.78,10.0,South,17.3,24.2,N/A,,Clear,180,2013-06-25 01:53:00
9:53 PM,84.9,60.1,43,29.81,10.0,South,11.5,-,N/A,,Clear,180,2013-06-25 02:53:00
10:53 PM,84.0,61.0,46,29.81,10.0,South,17.3,-,N/A,,Clear,180,2013-06-25 03:53:00
11:53 PM,82.9,61.0,47,29.82,10.0,South,15.0,-,N/A,,Clear,170,2013-06-25 04:53:00